Weather History for De Queen, AR

Change the Weather History Date:

Tuesday, November 15, 2011

  Actual Average Record
Temperature  
Mean Temperature 69 °F 52 °F  
Max Temperature 74 °F 65 °F 84 °F (1999)
Min Temperature 64 °F 39 °F 18 °F (1940)
Degree Days  
Heating Degree Days 0 13  
Month to date heating degree days 99 150  
Since 1 July heating degree days 249 283  
Cooling Degree Days 4 0  
Month to date cooling degree days 20 5  
Year to date cooling degree days 2514 1939  
Growing Degree Days 18 (Base 50)    
Moisture  
Dew Point 66 °F    
Average Humidity 94    
Maximum Humidity 100    
Minimum Humidity 87    
Precipitation  
Precipitation 0.45 in 0.17 in 3.95 in (1978)
Month to date precipitation 0.81 2.56  
Year to date precipitation 28.78 42.28  
Snow  
Snow 0.00 in - - ()
Month to date snowfall 0.0  
Since 1 July snowfall 0.0  
Since 1 September snowfall 0.0  
Snow Depth 0.00 in    
Sea Level Pressure  
Sea Level Pressure 29.73 in    
Wind  
Wind Speed 3 mph (SSE)    
Max Wind Speed 7 mph    
Max Gust Speed 8 mph    
Visibility 7 miles    
Events Rain , Thunderstorm    
T = Trace of Precipitation, MM = Missing Value Source: NWS Daily Summary

Daily Weather History Graph

Daily Weather History Graph

Search for Another Location

Airport:

Trip Planner

Search our weather history database for the weather conditions in past years. The results will help you decide how hot, cold, wet, or windy it might be!

Date:

Astronomy

Nov. 15, 2011 Rise Set
Actual Time 6:49 AM CST 5:14 PM CST
Civil Twilight 6:23 AM CST 5:40 PM CST
Nautical Twilight 5:53 AM CST 6:10 PM CST
Astronomical Twilight 5:23 AM CST 6:40 PM CST
Moon 9:24 PM CST (11/15) 10:48 AM CST (11/15)
Length of Visible Light 11h 17m
Length of Day
10h 24m
Waning Gibbous, 79% of the Moon is Illuminated
Nov 15
Waning Gibbous
Nov 18
Last Quarter
Nov 25
New
Dec 2
First Quarter
Dec 10
Full

Hourly Weather History & Observations

Time (CST) Temp. Dew Point Humidity Pressure Visibility Wind Dir Wind Speed Gust Speed Precip Events Conditions
12:24 AM 66.2 °F 64.4 °F 94% 29.77 in 8.0 mi SSW 4.6 mph - 0.01 in Rain , Thunderstorm Light Thunderstorms and Rain
12:30 AM 68.0 °F 66.2 °F 94% 29.77 in 1.8 mi SSE 6.9 mph - 0.02 in Rain , Thunderstorm Heavy Thunderstorms and Rain
12:40 AM 66.2 °F 66.2 °F 100% 29.76 in 3.0 mi SSE 8.1 mph - 0.03 in Rain , Thunderstorm Thunderstorms and Rain
12:53 AM 66.9 °F 66.0 °F 97% 29.75 in 8.0 mi SSE 4.6 mph - 0.05 in Rain , Thunderstorm Light Rain
1:18 AM 68.0 °F 66.2 °F 94% 29.76 in 10.0 mi South 3.5 mph - 0.02 in Rain Light Rain
1:35 AM 66.2 °F 66.2 °F 100% 29.76 in 9.0 mi SSW 3.5 mph - 0.04 in Rain , Thunderstorm Light Rain
1:53 AM 68.0 °F 66.0 °F 93% 29.74 in 5.0 mi SSE 8.1 mph - 0.05 in Rain , Thunderstorm Thunderstorms and Rain
2:33 AM - - N/A% - - North - - N/A   Unknown
2:40 AM 64.4 °F 62.6 °F 94% 29.76 in - SE 3.5 mph - N/A Rain , Thunderstorm Thunderstorms and Rain
2:53 AM 64.9 °F 64.0 °F 97% 29.74 in 5.0 mi South 4.6 mph - N/A Rain , Thunderstorm Heavy Thunderstorms and Rain
3:40 AM 64.4 °F 64.4 °F 100% 29.75 in 4.0 mi South 6.9 mph - 0.02 in Rain Heavy Rain
3:51 AM 64.4 °F 64.4 °F 100% 29.74 in 4.0 mi South 4.6 mph - 0.03 in Rain , Thunderstorm Rain
3:53 AM 64.9 °F 64.0 °F 97% 29.73 in 4.0 mi South 4.6 mph - 0.03 in Rain , Thunderstorm Rain
4:00 AM 66.2 °F 64.4 °F 94% 29.74 in 7.0 mi South 3.5 mph - 0.00 in Rain Light Rain
4:04 AM 66.2 °F 64.4 °F 94% 29.74 in 8.0 mi Calm Calm - 0.01 in Rain Light Rain
4:11 AM 66.2 °F 64.4 °F 94% 29.74 in 8.0 mi South 4.6 mph - 0.01 in Rain Light Rain
4:34 AM 66.2 °F 64.4 °F 94% 29.74 in 6.0 mi SSW 3.5 mph - 0.02 in Rain Light Rain
4:53 AM 66.9 °F 66.0 °F 97% 29.72 in 3.0 mi SSE 5.8 mph - 0.03 in Rain Heavy Rain
4:59 AM 66.2 °F 66.2 °F 100% 29.73 in 2.5 mi SSE 8.1 mph - 0.00 in Rain Heavy Rain
5:08 AM 66.2 °F 64.4 °F 94% 29.73 in 4.0 mi SSE 8.1 mph - 0.01 in Rain Heavy Rain
5:41 AM 66.2 °F 64.4 °F 94% 29.73 in 10.0 mi Calm Calm - 0.02 in   Overcast
5:53 AM 66.0 °F 64.9 °F 96% 29.71 in 10.0 mi ESE 3.5 mph - 0.03 in   Overcast
7:02 AM 66.2 °F 66.2 °F 100% 29.74 in 5.0 mi South 3.5 mph - 0.00 in Rain Light Rain
7:53 AM 66.9 °F 66.0 °F 97% 29.75 in 3.0 mi Calm Calm - 0.03 in Rain Rain
8:53 AM 69.1 °F 66.9 °F 93% 29.76 in 8.0 mi SSW 4.6 mph - 0.02 in Rain Light Rain
9:08 AM 69.8 °F 66.2 °F 88% 29.77 in 7.0 mi South 3.5 mph - 0.01 in   Overcast
9:53 AM 69.1 °F 68.0 °F 96% 29.76 in 7.0 mi SSE 4.6 mph - 0.02 in   Overcast
10:00 AM 69.8 °F 66.2 °F 88% 29.77 in 7.0 mi SSE 5.8 mph - 0.01 in Rain Light Rain
10:26 AM 69.8 °F 66.2 °F 88% 29.78 in 7.0 mi SSE 5.8 mph - 0.01 in Rain Light Rain
10:53 AM 69.1 °F 68.0 °F 96% 29.75 in 5.0 mi South 4.6 mph - 0.02 in Rain Light Rain
11:08 AM 69.8 °F 68.0 °F 94% 29.76 in 5.0 mi Calm Calm - 0.01 in Rain Light Rain
11:53 AM 69.1 °F 68.0 °F 96% 29.75 in 7.0 mi South 3.5 mph - 0.02 in Thunderstorm Overcast
12:22 PM 69.8 °F 69.8 °F 100% 29.74 in 6.0 mi Calm Calm - 0.01 in Rain Light Rain
12:53 PM 72.0 °F 69.1 °F 91% 29.70 in 9.0 mi SW 5.8 mph - 0.01 in   Mostly Cloudy
1:04 PM 73.4 °F 69.8 °F 88% 29.71 in 10.0 mi SW 4.6 mph - 0.01 in   Mostly Cloudy
1:53 PM 73.9 °F 69.1 °F 85% 29.68 in 10.0 mi SSW 3.5 mph - 0.01 in   Mostly Cloudy
2:06 PM 73.4 °F 69.8 °F 88% 29.69 in 10.0 mi Calm Calm - 0.01 in   Scattered Clouds
2:53 PM 73.9 °F 69.1 °F 85% 29.67 in 10.0 mi Calm Calm - 0.01 in   Partly Cloudy
3:08 PM 73.4 °F 69.8 °F 88% 29.68 in 10.0 mi Calm Calm - 0.01 in Thunderstorm Scattered Clouds
3:53 PM 73.0 °F 69.1 °F 87% 29.67 in 9.0 mi East 8.1 mph - 0.01 in Rain , Thunderstorm Light Rain
4:28 PM 69.8 °F 66.2 °F 88% 29.70 in - ESE 8.1 mph - 0.01 in Thunderstorm Thunderstorm
4:32 PM 68.0 °F 66.2 °F 94% 29.70 in 1.8 mi SE 5.8 mph - 0.01 in Rain , Thunderstorm Heavy Thunderstorms and Rain
4:45 PM 68.0 °F 66.2 °F 94% 29.70 in 3.0 mi ESE 3.5 mph - 0.01 in Rain , Thunderstorm Heavy Thunderstorms and Rain
4:53 PM 66.9 °F 64.9 °F 93% 29.68 in 3.0 mi Variable 4.6 mph - 0.01 in Rain , Thunderstorm Light Thunderstorms and Rain
5:23 PM 68.0 °F 64.4 °F 88% 29.69 in 5.0 mi SE 6.9 mph - 0.00 in Rain , Thunderstorm Light Thunderstorms and Rain
5:29 PM 66.2 °F 66.2 °F 100% 29.69 in 1.8 mi SSE 6.9 mph - 0.00 in Rain , Thunderstorm Heavy Thunderstorms and Rain
5:39 PM 66.2 °F 66.2 °F 100% 29.69 in 3.0 mi SSE 3.5 mph - N/A Rain , Thunderstorm Heavy Thunderstorms and Rain
5:53 PM 66.9 °F 66.0 °F 97% 29.69 in 7.0 mi Calm Calm - N/A Rain , Thunderstorm Thunderstorms and Rain
6:01 PM 66.2 °F 66.2 °F 100% 29.69 in 6.0 mi East 6.9 mph - 0.00 in Rain , Thunderstorm Light Rain
6:14 PM 66.2 °F 64.4 °F 94% 29.69 in 10.0 mi East 3.5 mph - 0.00 in   Overcast
6:39 PM 66.2 °F 64.4 °F 94% 29.71 in 10.0 mi Calm Calm - 0.00 in   Overcast
6:50 PM 66.2 °F 64.4 °F 94% 29.71 in 10.0 mi NW 4.6 mph - 0.00 in   Overcast
6:53 PM 66.9 °F 64.9 °F 93% 29.71 in 10.0 mi West 3.5 mph - 0.00 in   Overcast
7:16 PM 66.2 °F 64.4 °F 94% 29.73 in 10.0 mi Calm Calm - 0.01 in   Overcast
7:53 PM 66.9 °F 64.9 °F 93% 29.72 in 10.0 mi Calm Calm - 0.01 in   Overcast
8:19 PM 66.2 °F 64.4 °F 94% 29.73 in 10.0 mi Calm Calm - 0.00 in   Overcast
8:40 PM 66.2 °F 64.4 °F 94% 29.74 in 10.0 mi Calm Calm - 0.01 in   Overcast
8:53 PM 66.0 °F 64.9 °F 96% 29.73 in 10.0 mi Calm Calm - 0.01 in   Overcast
9:53 PM 64.9 °F 64.0 °F 97% 29.74 in 6.0 mi Calm Calm - 0.00 in Rain Light Rain
10:41 PM 64.4 °F 62.6 °F 94% 29.74 in 3.0 mi Calm Calm - N/A Rain Heavy Rain
10:53 PM 64.0 °F 63.0 °F 96% 29.73 in 3.0 mi Calm Calm - N/A Rain Heavy Rain
11:01 PM 64.4 °F 62.6 °F 94% 29.73 in 5.0 mi Calm Calm - N/A Rain Rain
11:36 PM 64.4 °F 62.6 °F 94% 29.73 in 6.0 mi Calm Calm - N/A Rain Light Rain
11:53 PM 64.0 °F 63.0 °F 96% 29.72 in 8.0 mi Calm Calm - N/A   Overcast